Flag Weather past 2 weeks in Kvernaland, Norway

Now
44 °F

Clear.


Feels Like: 41 °F
Forecast: 42 / 44 °F
Wind: 5 mph from Southeast

Location: Stavanger / Sola

Current Time: Nov 27, 2014 at 6:39:50 PM

Latest Report: Nov 27, 2014 at 6:00 PM


Visibility: 31 mi

Pressure: 30.00 "Hg

Humidity: 61%

Dew point: 31 °F

Location of KvernalandLocation

Historic Weather in Kvernaland — Graph

°F

Kvernaland temperature yesterday

Maximum temperature yesterday: 48 °F (at 3:00 PM)
Minimum temperature yesterday: 36 °F (at 12:00 AM)
Average temperature yesterday: 42 °F

Past Weeks' High & Low Weather Summary

 TemperatureHumidityPressure
High54 °F (Nov 12, 5:00 PM)99% (Nov 26, 12:00 AM)30.47 "Hg (Nov 26, 12:00 AM)
Low32 °F (Nov 22, 5:00 AM)48% (Nov 16, 2:00 PM)29.69 "Hg (Nov 23, 10:00 PM)
Average46 °F72%30.09 "Hg
* Reported Nov 12 5:00 PM — Nov 27 5:00 PM, Kvernaland, Weather by CustomWeather, © 2014

Note: Actual official high and low records may vary slightly from our data, if they occured in-between our weather recording intervals... More about our weather records

Advertising

Kvernaland weather history for previous 24 hours

 ConditionsComfort  
Time TempWeatherWind HumidityBarometerVisibility
5:00 PM
Nov 27
45 °FClear.5 mph60%29.98 "Hg31 mi
4:00 PM45 °FClear.1 mph60%29.98 "Hg31 mi
3:00 PM46 °FSunny.2 mph59%29.98 "Hg31 mi
2:00 PM46 °FSunny.6 mph57%29.98 "Hg31 mi
1:00 PM47 °FSunny.12 mph59%29.99 "Hg25 mi
12:00 PM47 °FSunny.10 mph62%30.01 "Hg25 mi
11:00 AM47 °FSunny.5 mph64%30.00 "Hg28 mi
10:00 AM45 °FSunny.3 mph65%29.99 "Hg25 mi
9:00 AM43 °FSunny.3 mph69%29.99 "Hg31 mi
8:00 AM43 °FClear.3 mph70%29.98 "Hg31 mi
7:00 AM43 °FClear.5 mph72%29.98 "Hg31 mi
6:00 AM42 °FClear.3 mph74%30.00 "Hg31 mi
5:00 AM40 °FClear.5 mph82%30.01 "Hg31 mi
3:00 AM36 °FClear.2 mph89%30.03 "Hg16 mi
2:00 AM37 °FClear.2 mph85%30.04 "Hg19 mi
1:00 AM36 °FClear.1 mph88%30.05 "Hg14 mi
12:00 AM36 °FClear.No wind88%30.06 "Hg18 mi
11:00 PM
Nov 26
37 °FClear.1 mph86%30.07 "Hg22 mi
10:00 PM38 °FClear.1 mph87%30.08 "Hg12 mi
9:00 PM38 °FClear.1 mph84%30.09 "Hg10 mi
8:00 PM38 °FClear.1 mph83%30.10 "Hg13 mi
7:00 PM40 °FClear.1 mph79%30.11 "Hg17 mi
6:00 PM41 °FClear.2 mph77%30.12 "Hg19 mi
Weather by CustomWeather, © 2014

See weather overviewHow to use our weather pages